Location: Godiavel Galaoual
(15.2485°N, 12.6604°W)
Time: 08:43:09
(UTC+00:00)

STARLINK-60 - Pass Details

Date: 27 February 2020
Orbit: 402 x 406 km, 53.0° (Epoch: 06 April)

Event Time Altitude Azimuth Distance (km) Brightness Sun altitude
Rises 20:18:53 0° 316° (NW) 2,326 7.4 -20.3°
Reaches altitude 10° 20:21:00 10° 310° (NW) 1,468 6.4 -20.8°
Maximum altitude 20:24:11 47° 236° (SW) 554 3.9 -21.6°
Enters shadow 20:24:46 41° 201° (SSW) 610 4.0 -21.7°
